軌道要素
Epoch 2022 Jan. 21.0 TT = JDT 2459600.5
T 2022 Jan. 13.82641 TT Rudenko
q 3.1051885 (2000.0) P Q
n 0.06201822 Peri. 305.15378 +0.83658126 +0.39975263
a 6.3210592 Node 36.04818 +0.05015259 +0.62502917
e 0.5087550 Incl. 39.53736 -0.54554240 +0.67047473
P 15.9
From 170 observations 2006 Sept. 22-2021 June 15, mean residual 1".0.
|